www.pogodaiklimat.ru

Погода и климат >> Архив погоды >> Аргентина >> Neuquen


ПОГОДА в Neuquen

  • Прогноз погоды в Neuquen
  • Монитор погоды в Neuquen
  • Климат города

АРХИВ ПОГОДЫ в Neuquen

Время (UTC), дата Ветер
(напр.,м/с)
 
Видим.   Явления Облачность Т
(С)
Тd
(С)
f
(%)
Тe
(С)
Тes
(С)
Комфортность P
(гПа)
Po
(гПа)
Тmin
(С)
Tmax
(С)
R
(мм)
R24
(мм)
S
(см)
12 17.04 З 2 15 км ясно +9.8 +0.2 51 +9 +10 1022.6 990.2 +8.4 +23.6
15 17.04 ЮЗ 2 15 км ясно +16.4 -0.7 31 +17 +25 1022.7 990.8
18 17.04 З 2 15 км ясно +18.8 -2.3 24 +20 +28 1020.4 988.5
21 17.04 З 2 15 км ясно +19.1 -3.8 21 +20 +20 1018.9 986.9
00 18.04 штиль 0 15 км ясно +10.4 +3.1 61 +10 +10 1020.3 987.6 +9.8 +19.7
03 18.04 СЗ 1 15 км ясно +5.4 +1.9 78 +4 +4 1020.6 988.0
06 18.04 штиль 0 15 км ясно +3.8 +1.8 87 +3 +3 1019.9 987.4
09 18.04 штиль 0 15 км ясно +1.8 -0.1 87 +1 +1 1019.2 986.6
12 18.04 З 1 15 км ясно +5.0 -4.3 51 +4 +5 1019.8 986.9 +1.6 +10.6
15 18.04 З 3 15 км ясно +16.0 +2.9 41 +16 +22 1018.7 986.1
18 18.04 З 3 15 км ясно +22.2 +1.2 25 +22 +28 комфорт 1015.4 983.2
21 18.04 ЮЗ 1 15 км ясно +23.0 +5.2 31 +23 +24 комфорт 1013.8 981.6
00 19.04 штиль 0 15 км ясно +12.8 +7.5 70 +12 +12 1014.6 981.8 +5.0 +23.1
03 19.04 штиль 0 15 км ясно +8.2 +5.1 81 +7 +7 1014.8 982.5
06 19.04 СЗ 2 15 км ясно +7.0 +3.5 78 +5 +5 1014.7 982.6
09 19.04 СЗ 2 15 км ясно +6.2 +1.8 73 +5 +5 1013.9 981.8
12 19.04 З 1 15 км ясно +8.4 +3.3 70 +9 +9 1015.3 982.8 +5.0 +12.9
18 19.04 З 3 15 км ясно +25.6 +7.3 31 +26 +32 жарко 1011.5 979.8
21 19.04 штиль 0 15 км ясно +27.2 +9.3 32 +27 +28 жарко 1009.8 978.3
00 20.04 штиль 0 15 км ясно +15.6 +10.8 73 +15 +15 1011.2 979.0 +8.4 +28.0
03 20.04 З 1 15 км ясно +12.6 +7.5 71 +13 +13 1012.3 980.5
06 20.04 штиль 0 15 км ясно +9.8 +7.5 86 +9 +9 1011.5 979.8
09 20.04 З 2 15 км ясно +12.2 +7.3 72 +12 +12 1011.1 979.7
12 20.04 ЮЗ 1 12 км дым ясно +10.3 +7.4 82 +10 +10 1013.2 981.0 +8.4 +16.4
15 20.04 З 3 15 км ясно +19.9 +8.3 47 +21 +28 комфорт 1012.6 980.8
18 20.04 З 2 15 км ясно +25.2 +8.0 33 +25 +33 комфорт 1010.5 978.9
21 20.04 З 3 15 км ясно +26.9 +8.6 32 +27 +28 жарко 1009.7 978.4
00 21.04 ЮЗ 3 15 км ясно +21.6 +6.4 37 +22 +22 комфорт 1012.6 980.8 +10.0 +27.7
03 21.04 штиль 0 15 км 3/0
[Cs]
+15.2 +9.5 69 +15 +15 1014.4 982.6
06 21.04 СЗ 1 15 км ясно +12.2 +7.7 74 +12 +12 1013.8 982.2
09 21.04 штиль 0 15 км 3/0
[Ac As]
+10.0 +7.1 82 +9 +9 1014.3 982.6
12 21.04 штиль 0 15 км 8/8 1500 м
[Sc Ac As]
+11.7 +8.7 82 +11 +11 1014.9 983.0 +9.8 +21.7
15 21.04 С 2 15 км ясно +21.8 +9.0 44 +23 +31 комфорт 1013.6 982.0
18 21.04 С 2 15 км ясно +25.2 +8.2 34 +26 +33 жарко 1009.3 977.8
21 21.04 С 2 15 км ясно +26.2 +8.8 33 +26 +27 жарко 1007.2 975.8
00 22.04 ЮЗ 1 15 км зарница 1/1 1500 м
[Cb calv]
+17.0 +12.5 75 +19 +19 1007.9 976.1 +11.7 +26.6
03 22.04 З 2 15 км ясно +16.8 +6.8 52 +17 +17 1008.6 977.3
06 22.04 СЗ 1 15 км ясно +9.5 +4.9 73 +9 +9 1008.9 977.4
09 22.04 СЗ 1 15 км ясно +7.8 +5.6 86 +8 +8 1009.5 977.8
12 22.04 Ю 2 15 км ясно +11.3 +7.2 76 +11 +11 1011.8 979.8 +6.4 +18.6
15 22.04 Ю 4 15 км 3/0
[Cs]
+22.2 +7.3 38 +23 +27 комфорт 1013.5 982.0
18 22.04 ЮЗ 5 15 км 6/3 1200 м
[Sc Cs]
+23.4 +5.9 32 +24 +26 комфорт 1014.1 982.2
21 22.04 ЮЗ 4 15 км 4/0
[Ac As Cs]
+21.2 +2.1 28 +21 +21 комфорт 1015.7 983.6
00 23.04 Ю 1 15 км 5/0
[Ac As Cs]
+17.0 +3.6 41 +19 +19 1017.8 985.7 +11.3 +23.9
03 23.04 З 2 15 км 9/3 1500 м
[Sc As op Cs]
+16.4 +4.7 46 +17 +17 1019.9 988.2
06 23.04 Ю 1 15 км 9/3 1500 м
[Sc As op Cs]
+15.1 +2.1 41 +17 +17 1020.1 988.4
09 23.04 Ю 1 15 км в посл. час дождь 9/3 1500 м
[Sc As op Cs]
+13.2 +3.5 52 +14 +14 1019.6 987.7
12 23.04 ЮВ 3 15 км {дождь} 10/4 1000 м
[Sc As op]
+12.6 +5.4 61 +11 +11 1021.9 989.7 +12.5 +17.0 421 47
15 23.04 В 4 15 км 9/5 1000 м
[Cb calv Ac cuf]
+14.2 +3.2 47 +13 +14 1022.1 989.8
18 23.04 ЮВ 3 15 км 9/0 180 м
[Ac As Cs]
+18.5 +7.1 47 +19 +23 1020.1 988.2
21 23.04 ЮВ 4 15 км 9/0
[Ac As Cs]
+15.5 +7.6 59 +15 +15 1020.1 987.8
00 24.04 ЮВ 1 15 км 9/5 1050 м
[Sc Ac As Cs]
+16.1 +3.1 42 +17 +17 1021.7 989.4 +12.4 +19.8
03 24.04 ЮВ 3 15 км {дождь} 6/1 1200 м
[Sc Ac As]
+12.2 +6.4 68 +11 +11 1021.8 989.4
06 24.04 ЮВ 3 15 км 6/3 1350 м
[Sc Ac As]
+11.2 +6.8 74 +10 +10 1026.2 988.6 0.0
09 24.04 ЮВ 3 15 км 9/3 1200 м
[Sc Ac As]
+11.7 +7.6 76 +10 +10 1019.4 987.0

 

Местоположение метеостанции Neuquen (Аргентина): широта -38.95 долгота -68.13 высота над уровнем моря 271 м.

В архиве по умолчанию представлена погода в Neuquen за последнюю неделю. Архивные данные за месяц целиком и за предыдущие месяцы, начиная с января 2011 года, Вы можете получить, выбрав интересующий диапазон дат из раскрывающегося списка и нажав кнопку "Ввод!".


*Определитесь, кто Вы:
робот инопланетянин человек

Внимание! Время в таблицах - всемирное. Для получения местного времени необходимо прибавить поправку, которая в Neuquen равна -3 ч.

Смотрите также архив погоды в соседних городах и на ближайших метеорологических станциях:

Погода в Maquinchao (Аргентина) (261 км)
Погода в San Antonio Oeste (Аргентина) (330 км)
Погода в San Carlos de Bariloche (Аргентина) (356 км)
Погода в Temuco (Чили) (390 км)
Погода в Araucania (Чили) (391 км)
Погода в Malargue (Аргентина) (405 км)
Погода в Santa Rosa (Аргентина) (432 км)
Погода в Valdivia (Чили) (433 км)
Погода в Chillan (Чили) (434 км)
Погода в El Bolson (Аргентина) (442 км)

Пояснения к столбцам:

Ветер - указаны скорость ветра в м/с - средняя за 10 мин, порывы в срок и между сроками (в фигурных скобках) и направление, откуда дует ветер: С - северный, СВ - северо-восточный, В - восточный, ЮВ - юго-восточный, Ю - южный, ЮЗ - юго-западный, З - западный, СЗ - северо-западный.
Видимость - горизонтальная дальность видимости в метрах или километрах. При видимости от 1 до 10 км при отсутствии осадков обычно наблюдается дымка, при ухудшении видимости до 1 км и менее - туман. В сухую погоду видимость может ухудшаться дымом, пылью или мглою.
Явления - указаны атмосферные явления, наблюдавшиеся в срок или в последний час перед сроком; фигурными скобками обозначены явления, наблюдавшиеся между сроками (за 1-3 часа до срока); квадратными скобками обозначены град или гололедные отложения с указанием их диаметра в мм.
Облачность - указаны через наклонную черту общая и нижняя облачность в баллах и высота нижней границы облаков в метрах; квадратными скобками обозначены формы облаков: Ci - перистые, Cs - перисто-слоистые, Cc - перисто-кучевые, Ac - высококучевые, As - высокослоистые, Sc - слоисто-кучевые, Ns - слоисто-дождевые, Cu - кучевые, Cb - кучево-дождевые. Подробнее классификацию облаков см. в Атласе облаков (PDF).
T - Температура воздуха - температура, измеренная на высоте 2 м над землей.
Td - Температура точки росы - температура, при понижении до которой содержащийся в воздухе водяной пар достигнет насыщения.
f - Относительная влажность воздуха - влажноcть воздуха, измеренная на высоте 2 м над землей.
Te - Эффективная температура - температура, которую ощущает одетый по сезону человек в тени. Характеристика душности погоды. При расчете учитывается влияние влажности воздуха и скорости ветра на теплоощущения человека.
Tes - Эффективная температура на солнце - температура, которую ощущает человек, с поправкой на солнечный нагрев. Характеристика знойности погоды. Зависит от высоты солнца над горизонтом, облачности и скорости ветра. Ночью, в пасмурную погоду, а также при ветре 12 м/с и более поправка равна нулю.
P - Атмосферное давление - приведенное к уровню моря атмосферное давление.
Po - Атмосферное давление - измеренное на уровне метеостанции атмосферное давление.
Tmin - Минимальная температура - минимум температуры воздуха на высоте 2 м над землей.
Tmax - Максимальная температура - максимум температуры воздуха на высоте 2 м над землей.
R - Количество осадков - Количество выпавших осадков за период времени, мм. При наведении курсора мыши на число - период времени, за который выпало указанное количество осадков.
R24 - Количество осадков - Количество выпавших осадков за 24 часа, мм.
S - Снежный покров - Высота снежного покрова, см. При наведении курсора мыши на число - состояние снежного покрова и степень покрытия местности в баллах.